Weather History for Tel Aviv, Israel

Change the Weather History Date:

Monday, December 3, 2012

  Actual Average Record
Temperature  
Mean Temperature 66 °F -  
Max Temperature 80 °F 65 °F 86 °F (2010)
Min Temperature 52 °F 50 °F 41 °F (2011)
Cooling Degree Days 1    
Growing Degree Days 16 (Base 50)    
Moisture  
Dew Point 55 °F    
Average Humidity 71    
Maximum Humidity 88    
Minimum Humidity 36    
Precipitation  
Precipitation 0.00 in - - ()
Sea Level Pressure  
Sea Level Pressure 29.97 in    
Wind  
Wind Speed 3 mph ()    
Max Wind Speed 14 mph    
Max Gust Speed -    
Visibility 5.9 miles    
Events      
Averages and records for this station are not official NWS values.
T = Trace of Precipitation, MM = Missing Value Source: Averaged Metar Reports

Daily Weather History Graph

Daily Weather History Graph

Search for Another Location

Airport:

Trip Planner

Search our weather history database for the weather conditions in past years. The results will help you decide how hot, cold, wet, or windy it might be!

Date:

Astronomy

Dec. 03, 2012 Rise Set
Actual Time 6:24 AM IST 4:35 PM IST
Civil Twilight 5:58 AM IST 5:02 PM IST
Nautical Twilight 5:27 AM IST 5:32 PM IST
Astronomical Twilight 4:58 AM IST 6:02 PM IST
Moon 8:53 PM IST (12/3) 9:43 AM IST (12/3)
Length of Visible Light 11h 04m
Length of Day
10h 10m
Waning Gibbous, 80% of the Moon is Illuminated
Dec 3
Waning Gibbous
Dec 6
Last Quarter
Dec 13
New
Dec 20
First Quarter
Dec 28
Full

Hourly Weather History & Observations

Time (IST) Temp. Dew Point Humidity Pressure Visibility Wind Dir Wind Speed Gust Speed Precip Events Conditions
12:50 AM 59.0 °F 53.6 °F 82% 30.04 in 5.0 mi Calm Calm - N/A   Unknown
1:50 AM 57.2 °F 53.6 °F 88% 30.04 in 5.6 mi NE 1.2 mph - N/A   Unknown
2:00 AM 58 °F 53 °F 80% 30.04 in 6 mi NE 1.2 mph - -   Mist
2:50 AM 55.4 °F 51.8 °F 88% 30.01 in - East 4.6 mph - N/A   Clear
3:50 AM 55.4 °F 50.0 °F 82% 30.01 in - Calm Calm - N/A   Clear
4:50 AM 53.6 °F 50.0 °F 88% 30.01 in - East 3.5 mph - N/A   Clear
5:50 AM 53.6 °F 46.4 °F 77% 30.04 in - ENE 4.6 mph - N/A   Clear
6:50 AM 55.4 °F 46.4 °F 72% 30.04 in - Variable 1.2 mph - N/A   Clear
7:50 AM 57.2 °F 48.2 °F 72% 30.04 in - East 2.3 mph - N/A   Clear
8:00 AM 57 °F 47 °F 61% 30.04 in 6 mi East 2.3 mph - -   Clear
8:50 AM 64.4 °F 48.2 °F 56% 30.04 in - Variable 1.2 mph - N/A   Clear
9:50 AM 69.8 °F 53.6 °F 56% 30.01 in - Calm Calm - N/A   Clear
10:50 AM 75.2 °F 57.2 °F 53% 30.01 in - Variable 1.2 mph - N/A   Clear
11:50 AM 77.0 °F 51.8 °F 41% 29.95 in - NNW 11.5 mph - N/A   Clear
12:50 PM 78.8 °F 50.0 °F 36% 29.95 in - WNW 3.5 mph - N/A   Clear
1:50 PM 73.4 °F 60.8 °F 65% 29.92 in - WNW 13.8 mph - N/A   Clear
2:00 PM 74 °F 60 °F 53% 29.94 in 6 mi WNW 13.8 mph - -   Partly Cloudy
2:50 PM 73.4 °F 59.0 °F 61% 29.95 in - WNW 13.8 mph - N/A   Clear
3:50 PM 71.6 °F 62.6 °F 73% 29.95 in 6.2 mi NNW 9.2 mph - N/A   Mostly Cloudy
4:50 PM 71.6 °F 62.6 °F 73% 29.95 in 6.2 mi NNE 6.9 mph - N/A   Mostly Cloudy
5:50 PM 69.8 °F 62.6 °F 78% 29.95 in - ENE 4.6 mph - N/A   Clear
6:50 PM 68.0 °F 62.6 °F 83% 29.95 in - NNE 3.5 mph - N/A   Clear
7:50 PM 68.0 °F 60.8 °F 78% 29.92 in - South 3.5 mph - N/A   Clear
8:00 PM 69 °F 60 °F 67% 29.94 in 6 mi South 3.5 mph - -   Mostly Cloudy
8:50 PM 66.2 °F 60.8 °F 83% 29.92 in - West 3.5 mph - N/A   Clear
9:50 PM 66.2 °F 60.8 °F 83% 29.89 in - South 2.3 mph - N/A   Clear
10:50 PM 68.0 °F 59.0 °F 73% 29.86 in - ESE 5.8 mph - N/A   Clear
11:50 PM 66.2 °F 57.2 °F 73% 29.86 in - South 8.1 mph - N/A   Clear